Wind_Speed
17 17 17 18 20 19 20 22 22 22 20 18 17 17 16 15 14 12 12 11 10 10 10 11 11 12 12 12 12 12 11 11 11 10 10 10 11 11 11 11 11 11 11 11 11 11 10 10 10
15 15 16 17 18 18 20 22 22 22 20 18 18 17 16 14 13 12 11 10 9 9 9 10 11 11 11 12 11 11 11 11 10 10 10 10 10 10 11 11 11 10 11 11 10 11 10 10 10
14 14 14 16 16 17 19 21 21 21 20 19 18 17 16 14 13 12 11 10 9 9 10 10 11 11 11 11 11 10 9 10 10 10 10 10 10 10 10 10 10 10 9 10 10 10 10 10 9
14 14 14 14 15 17 19 20 21 21 21 20 19 17 15 14 12 11 10 9 8 9 10 10 10 10 10 10 10 10 9 9 9 9 9 9 8 8 9 9 9 9 9 10 10 9 9 9 9
12 14 14 14 15 17 18 19 20 20 20 19 19 17 15 14 12 11 10 9 8 9 9 10 10 10 10 9 9 9 9 9 9 8 9 8 8 7 8 8 8 8 8 9 9 9 8 8 8
10 12 14 14 15 16 18 18 20 20 19 18 18 17 15 14 13 11 10 9 8 9 9 10 10 10 9 9 9 8 8 8 8 7 7 7 7 7 7 7 7 7 7 8 8 8 8 7 7
9 11 13 14 14 15 16 18 19 19 18 17 16 16 15 15 13 12 10 9 9 10 10 10 10 10 9 9 8 8 8 7 7 6 6 6 6 6 7 7 7 7 7 7 7 7 7 7 7
8 10 12 13 14 15 16 17 17 18 17 16 16 15 14 14 13 12 12 10 10 11 11 10 10 9 9 8 7 7 7 7 7 6 5 5 5 5 6 6 6 6 6 6 6 6 6 6 6
7 9 11 12 14 15 16 17 17 17 17 16 16 16 14 13 13 12 12 11 10 11 11 10 10 9 8 8 7 7 7 6 7 6 6 5 5 5 5 6 5 5 5 5 5 5 5 5 6
4 6 8 11 12 13 14 16 16 16 16 16 16 15 14 13 12 12 11 10 10 11 10 10 10 9 8 7 7 7 6 6 5 5 4 4 5 5 5 5 5 5 5 5 5 5 5 5 5
3 4 5 8 10 11 13 14 15 15 15 16 15 15 14 13 11 11 10 10 10 10 10 10 10 9 8 7 7 6 6 5 5 5 4 5 5 4 4 4 3 4 5 5 5 5 4 4 4
3 3 4 5 7 9 10 12 14 14 14 15 15 15 14 12 11 10 10 10 10 10 10 10 9 9 8 7 6 6 5 5 5 5 4 4 4 4 3 3 3 3 4 4 4 5 5 4 4
5 4 3 4 5 7 8 10 12 13 13 14 15 14 14 14 11 10 9 10 10 9 9 9 8 8 8 8 8 6 5 5 5 4 4 4 4 4 3 3 3 3 3 3 4 4 4 4 4
8 6 5 3 4 5 7 9 10 11 12 12 13 13 13 12 11 9 9 9 9 9 8 9 8 8 8 7 7 6 6 4 3 3 3 3 3 3 3 2 2 2 3 3 3 3 4 4 4
10 9 7 5 3 2 4 6 8 10 10 10 11 12 12 11 10 9 9 9 9 9 8 8 8 8 8 7 7 6 6 6 4 3 3 3 3 2 3 2 2 2 2 2 2 2 3 3 3
13 11 10 7 5 3 1 3 6 8 8 9 10 11 12 11 10 9 9 9 9 9 9 8 8 8 7 7 6 6 6 6 5 4 3 3 3 3 2 1 1 0 0 1 1 2 2 2 2
16 14 12 10 8 6 3 1 3 5 7 8 9 10 11 11 10 9 9 9 9 8 8 8 8 8 7 7 7 6 6 5 4 3 3 2 2 2 1 1 1 1 1 1 1 2 2 2 2
17 16 14 13 11 9 7 3 1 3 5 6 7 8 9 10 10 9 8 8 8 8 7 7 7 7 7 7 6 6 5 5 3 3 3 3 2 2 2 2 1 1 1 1 2 2 2 2 2
19 18 16 15 14 12 9 6 4 4 3 5 6 7 7 8 9 9 8 7 8 7 7 6 6 6 6 6 6 6 6 5 4 3 3 3 3 3 3 3 2 2 2 3 3 3 3 3 3
21 20 19 18 17 14 12 9 7 5 5 5 5 6 6 6 7 8 8 7 7 7 7 7 6 5 5 5 6 6 6 6 5 4 3 3 3 4 4 3 2 3 3 3 3 3 4 4 4
23 22 21 20 19 17 16 13 10 8 7 6 5 5 5 6 7 6 6 6 6 7 6 6 6 5 5 5 5 6 5 5 5 4 4 3 4 4 4 3 3 4 4 4 5 5 5 5 5
25 24 23 22 21 20 18 15 12 10 9 7 5 5 5 6 7 6 6 6 6 6 6 6 6 6 6 5 5 6 6 5 5 5 5 4 4 5 5 4 5 5 5 5 5 6 6 7 7
26 26 26 25 25 23 22 19 14 12 9 7 7 5 6 7 7 7 6 7 6 6 6 7 7 7 7 6 5 6 6 6 6 5 5 5 5 6 6 6 6 6 6 6 6 6 7 8 8
28 27 27 27 27 26 24 22 18 14 11 9 8 7 7 8 9 8 7 8 8 8 8 8 8 8 8 8 7 7 7 7 7 6 6 7 7 6 7 7 7 7 7 7 7 7 8 8 8
29 28 29 29 29 28 25 24 20 16 13 12 11 9 9 9 10 10 9 8 9 9 9 9 9 9 9 8 8 8 8 8 8 8 8 8 8 8 8 8 8 8 8 8 8 8 9 9 9
30 29 30 30 29 28 27 25 21 18 16 15 14 12 11 11 11 12 10 9 10 10 10 10 11 11 10 9 9 8 8 9 8 9 9 9 10 9 8 8 8 8 9 9 9 9 10 10 10
31 30 30 30 29 29 28 25 22 20 18 16 15 14 13 12 12 12 11 10 10 11 12 12 12 12 11 10 9 9 9 9 9 9 10 10 10 10 9 9 9 9 10 10 10 10 10 11 11
31 31 31 31 30 30 29 26 23 21 20 18 17 16 15 14 14 13 12 12 12 12 13 13 14 13 12 11 11 10 9 10 10 10 10 11 11 11 11 10 10 10 11 11 10 10 11 11 12
31 32 32 31 31 31 29 27 24 22 21 20 19 18 17 16 15 14 14 13 13 13 13 13 14 13 12 11 11 11 11 11 11 11 11 11 11 11 12 11 11 11 12 12 12 12 12 12 13
32 31 31 32 31 30 29 27 25 24 23 22 20 19 18 16 16 15 15 14 15 15 14 14 15 15 14 14 13 13 12 12 12 12 12 12 12 12 12 12 12 12 13 13 13 13 13 13 13
Wind_Direction
67 67 66 64 61 61 62 61 59 57 54 54 54 53 53 54 56 59 61 64 63 64 69 72 72 72 73 74 75 75 76 77 80 81 80 80 84 85 86 87 90 95 94 92 91 89 89 90 88
67 67 66 62 62 62 62 62 60 57 54 54 53 53 51 52 54 57 61 63 62 64 68 70 72 74 75 75 74 75 75 75 79 82 80 79 84 88 90 87 87 92 93 91 89 86 85 85 84
67 65 66 62 61 63 62 61 59 57 54 54 52 50 48 49 51 56 60 62 63 69 73 72 74 74 73 75 75 76 75 75 73 75 77 79 85 86 87 86 86 86 88 89 87 84 84 84 82
66 63 62 61 59 62 62 59 58 56 52 50 50 47 46 46 49 54 59 63 66 72 77 76 74 73 71 74 75 76 75 72 69 72 77 81 82 82 91 90 88 85 84 85 83 81 82 82 81
63 60 61 60 58 61 60 59 58 55 50 47 47 46 45 44 47 52 58 63 66 71 75 75 74 74 72 75 78 77 76 75 74 74 72 76 78 84 92 90 90 89 85 83 81 80 79 80 77
56 59 58 58 58 59 58 57 56 54 49 45 45 47 45 43 45 51 57 61 63 67 73 74 74 75 73 79 82 81 80 79 80 80 77 77 76 82 88 91 91 88 83 81 80 79 78 78 74
56 55 54 55 56 55 56 55 55 51 49 45 43 47 45 45 46 50 54 57 61 65 67 73 74 73 77 83 83 82 82 82 81 80 78 78 81 81 83 85 88 87 84 82 80 76 75 73 69
50 48 47 50 51 51 53 53 52 50 47 45 42 42 45 46 50 53 56 59 62 64 66 70 73 73 79 85 85 81 81 81 80 80 78 80 82 86 88 89 91 88 84 81 81 77 73 70 68
40 44 42 45 48 49 52 51 50 48 45 43 42 40 41 46 52 55 56 59 62 64 67 68 70 72 80 82 82 79 80 82 81 79 79 82 85 86 94 94 92 84 80 78 75 74 70 70 68
26 36 37 39 43 47 51 50 48 45 43 41 41 42 40 41 47 51 55 58 62 64 65 68 67 69 77 83 79 81 82 83 81 79 76 90 89 91 96 97 89 80 78 74 70 70 68 66 66
356 17 31 33 35 42 46 48 46 44 40 38 38 41 40 39 43 49 53 57 59 61 61 63 65 66 70 80 74 80 83 77 71 79 86 92 90 94 91 86 85 81 75 73 64 62 64 65 65
303 351 14 24 34 36 41 45 44 43 39 38 36 36 38 38 44 49 50 52 56 60 59 58 59 59 59 60 67 71 76 75 78 92 89 85 78 81 81 74 75 74 77 73 66 63 65 65 60
272 295 331 2 23 30 40 43 44 42 38 35 31 31 33 37 38 44 48 47 52 55 56 57 56 53 51 50 50 60 72 76 88 97 90 74 76 83 82 81 81 84 81 76 71 66 62 66 64
260 270 289 312 358 23 34 37 40 38 32 29 28 26 27 29 34 38 44 49 49 49 49 50 52 48 48 45 44 52 74 85 93 81 62 69 83 87 81 86 91 89 79 69 59 54 55 63 64
251 258 272 281 305 353 29 31 34 35 31 25 25 25 23 25 29 35 40 46 46 45 44 43 42 44 44 45 45 45 61 64 71 74 73 66 66 80 68 73 90 89 82 71 57 50 51 52 52
247 254 262 266 269 275 332 34 30 32 26 19 21 23 21 22 25 31 35 41 41 38 38 37 37 39 43 45 41 43 41 45 57 66 67 62 62 58 48 50 53 47 67 46 44 34 29 37 26
243 248 255 258 259 254 261 340 26 22 16 7 11 18 21 22 23 27 32 36 36 34 32 30 31 35 37 37 37 39 37 40 47 49 52 50 65 68 47 20 358 348 10 5 354 351 344 338 2
244 246 249 253 257 257 259 258 300 343 358 359 1 9 18 21 20 21 27 32 32 32 30 26 26 31 32 31 29 31 30 33 36 38 39 29 26 31 22 3 332 328 331 326 323 320 321 326 333
240 244 246 248 254 259 261 258 271 292 319 341 351 356 5 13 13 13 17 21 24 26 27 23 21 24 25 25 23 27 29 30 27 24 20 14 12 6 354 330 320 298 293 290 292 308 312 315 309
237 239 241 246 251 257 260 258 263 272 281 301 323 339 348 355 358 2 8 10 14 17 18 17 15 17 14 14 16 16 23 21 20 17 12 6 4 1 349 322 314 299 294 295 297 305 308 312 305
235 236 239 245 251 257 259 259 258 260 271 284 302 322 325 333 340 346 353 358 2 6 10 9 5 5 3 2 2 2 7 12 13 8 1 353 352 349 341 321 311 307 299 298 291 290 295 303 304
235 235 236 240 247 253 258 257 258 263 269 273 281 304 315 319 322 325 331 332 338 345 348 351 350 344 343 347 352 355 0 6 8 5 0 341 333 329 325 320 300 291 292 295 292 291 292 297 299
233 233 234 238 243 249 253 256 260 262 264 265 268 277 297 303 309 312 312 310 313 318 323 328 331 329 326 327 332 340 345 347 349 347 344 338 327 321 318 315 308 299 294 297 298 293 295 295 294
231 233 235 237 241 245 250 255 258 263 260 254 255 263 283 289 293 297 297 297 300 301 303 309 316 318 318 319 322 323 327 330 332 331 325 326 320 316 314 309 306 300 296 294 292 292 293 293 293
229 231 234 236 239 244 248 252 257 259 257 250 248 256 270 275 279 281 284 288 289 290 294 302 309 309 308 307 309 313 315 317 318 318 317 319 319 316 312 307 301 297 296 296 294 290 292 291 291
231 232 235 238 241 244 247 250 255 259 255 252 252 255 265 274 272 273 273 278 283 284 288 297 301 303 304 296 291 294 301 307 311 312 312 314 313 312 312 307 301 297 297 297 296 293 290 288 287
231 232 235 239 242 244 246 250 253 256 257 254 253 255 260 265 265 268 270 275 283 282 284 287 292 296 298 293 286 285 290 295 304 305 308 310 311 310 308 303 298 294 293 293 295 295 292 289 287
230 232 235 238 241 243 245 247 250 255 255 255 255 256 256 261 260 266 270 274 279 279 281 283 288 291 292 288 286 279 281 287 293 296 301 305 306 306 304 301 297 295 293 293 295 297 298 295 290
229 231 234 238 241 243 246 247 250 252 253 254 255 255 257 262 262 266 270 272 275 279 278 277 281 286 284 285 283 278 279 284 286 290 295 300 305 305 301 296 293 294 292 291 291 294 296 297 296
230 232 235 238 241 243 246 247 247 249 251 253 255 256 258 261 263 266 268 268 272 278 279 277 275 277 280 279 282 276 275 281 285 289 293 299 305 307 305 297 292 293 291 286 285 288 291 293 296
Height
5897 5896 5895 5895 5894 5892 5889 5888 5886 5885 5885 5884 5883 5882 5882 5881 5882 5884 5881 5879 5879 5879 5878 5878 5878 5877 5877 5877 5877 5877 5877 5877 5877 5878 5878 5879 5879 5879 5880 5880 5881 5881 5882 5882 5882 5883 5883 5883 5883
5899 5899 5899 5898 5896 5893 5892 5890 5888 5888 5888 5886 5885 5885 5884 5883 5882 5882 5881 5881 5881 5881 5880 5880 5879 5879 5879 5879 5879 5879 5879 5879 5879 5880 5880 5881 5881 5881 5882 5882 5883 5883 5884 5884 5884 5884 5885 5885 5885
5901 5901 5902 5900 5898 5896 5894 5892 5891 5891 5890 5889 5888 5887 5886 5885 5884 5883 5883 5883 5883 5882 5882 5881 5881 5881 5881 5881 5881 5881 5881 5881 5881 5881 5882 5882 5883 5883 5883 5884 5884 5885 5885 5885 5885 5886 5886 5886 5886
5904 5904 5903 5902 5900 5898 5897 5895 5894 5893 5892 5891 5890 5889 5888 5887 5886 5885 5885 5885 5885 5884 5883 5883 5883 5883 5883 5882 5883 5883 5883 5883 5883 5883 5884 5884 5884 5884 5885 5885 5886 5886 5887 5887 5887 5887 5888 5888 5888
5906 5906 5905 5903 5902 5901 5899 5897 5896 5895 5894 5894 5892 5891 5890 5890 5888 5887 5886 5886 5886 5886 5885 5884 5884 5884 5884 5884 5884 5884 5884 5885 5885 5885 5885 5886 5886 5886 5886 5887 5887 5888 5888 5888 5888 5888 5889 5889 5889
5908 5907 5907 5905 5904 5903 5901 5900 5898 5898 5897 5896 5895 5893 5892 5892 5890 5889 5889 5888 5888 5887 5886 5886 5886 5885 5885 5885 5885 5885 5886 5886 5886 5886 5887 5887 5887 5887 5888 5888 5889 5889 5889 5889 5889 5889 5890 5890 5890
5910 5909 5908 5907 5906 5905 5904 5902 5901 5900 5899 5898 5897 5896 5894 5894 5893 5892 5891 5890 5889 5889 5888 5888 5887 5887 5886 5886 5887 5887 5887 5887 5887 5888 5888 5888 5888 5889 5889 5889 5890 5890 5890 5890 5890 5891 5891 5891 5891
5910 5911 5909 5909 5908 5907 5906 5904 5903 5902 5902 5901 5899 5898 5897 5896 5895 5893 5893 5892 5891 5890 5890 5889 5889 5888 5888 5888 5888 5888 5888 5888 5888 5889 5889 5889 5889 5890 5890 5890 5891 5891 5891 5891 5891 5891 5892 5892 5892
5911 5913 5911 5910 5909 5909 5908 5906 5905 5904 5904 5903 5901 5900 5899 5897 5896 5895 5895 5894 5893 5892 5891 5891 5890 5890 5889 5889 5889 5889 5889 5889 5889 5889 5890 5890 5890 5891 5891 5892 5892 5892 5892 5893 5892 5892 5893 5893 5893
5912 5913 5912 5912 5911 5910 5909 5908 5908 5907 5906 5905 5903 5902 5900 5899 5898 5898 5897 5896 5895 5894 5893 5893 5892 5892 5891 5890 5890 5890 5890 5890 5890 5890 5890 5890 5891 5892 5892 5893 5893 5893 5893 5893 5893 5893 5893 5893 5893
5912 5913 5913 5913 5912 5912 5911 5910 5909 5909 5908 5907 5905 5904 5902 5901 5900 5899 5898 5897 5896 5896 5895 5894 5894 5893 5892 5892 5892 5891 5891 5891 5890 5890 5891 5891 5892 5892 5893 5893 5894 5894 5894 5894 5894 5894 5894 5894 5894
5912 5913 5913 5913 5913 5913 5912 5912 5911 5910 5910 5909 5907 5906 5904 5902 5900 5901 5900 5899 5898 5897 5897 5896 5896 5895 5894 5893 5893 5892 5892 5892 5892 5892 5892 5893 5893 5893 5893 5894 5894 5895 5895 5895 5895 5895 5895 5895 5895
5912 5913 5913 5913 5914 5914 5913 5913 5912 5912 5911 5910 5909 5908 5906 5905 5904 5902 5902 5901 5900 5899 5898 5898 5897 5896 5896 5895 5894 5894 5893 5893 5893 5893 5893 5893 5893 5893 5894 5894 5895 5895 5896 5896 5896 5896 5896 5896 5896
5911 5912 5913 5913 5914 5914 5914 5914 5914 5913 5913 5912 5911 5910 5908 5907 5906 5905 5904 5903 5902 5901 5900 5899 5899 5898 5897 5896 5895 5895 5894 5893 5893 5893 5894 5894 5894 5894 5894 5895 5895 5895 5896 5896 5896 5896 5896 5896 5896
5910 5911 5913 5913 5913 5914 5915 5915 5915 5915 5914 5913 5913 5911 5910 5909 5908 5907 5906 5904 5903 5902 5902 5901 5900 5899 5899 5898 5897 5896 5895 5895 5894 5894 5894 5894 5894 5894 5895 5895 5895 5896 5896 5896 5896 5896 5897 5897 5897
5908 5910 5912 5913 5913 5914 5916 5915 5915 5915 5915 5914 5914 5913 5912 5911 5910 5909 5907 5906 5905 5904 5903 5902 5902 5901 5900 5899 5898 5897 5896 5895 5895 5895 5895 5894 5894 5894 5895 5895 5896 5896 5896 5896 5897 5897 5897 5897 5897
5906 5908 5909 5911 5912 5913 5914 5915 5915 5915 5916 5915 5915 5914 5913 5912 5911 5910 5909 5907 5906 5905 5904 5904 5903 5902 5901 5900 5900 5899 5898 5897 5896 5896 5895 5895 5895 5895 5895 5896 5896 5896 5896 5896 5896 5896 5896 5896 5896
5904 5905 5907 5909 5910 5911 5913 5914 5914 5915 5916 5916 5915 5915 5914 5913 5912 5911 5910 5909 5908 5907 5906 5905 5904 5903 5902 5902 5901 5900 5899 5898 5897 5897 5896 5896 5896 5895 5895 5896 5896 5895 5896 5896 5896 5896 5896 5895 5895
5902 5903 5905 5907 5908 5909 5911 5912 5914 5915 5915 5916 5916 5915 5914 5913 5912 5912 5911 5910 5909 5908 5907 5906 5905 5904 5904 5903 5902 5901 5900 5899 5898 5897 5897 5896 5896 5896 5896 5895 5895 5895 5895 5895 5895 5895 5895 5895 5895
5898 5901 5902 5904 5906 5907 5909 5911 5912 5913 5914 5915 5915 5915 5914 5913 5913 5912 5911 5911 5910 5909 5908 5907 5907 5906 5905 5904 5903 5902 5901 5900 5899 5898 5897 5897 5896 5896 5895 5895 5895 5895 5895 5894 5894 5895 5894 5894 5894
5895 5898 5900 5901 5903 5905 5907 5909 5911 5912 5913 5913 5914 5914 5913 5913 5912 5912 5912 5911 5910 5909 5908 5908 5907 5906 5905 5904 5903 5902 5901 5900 5899 5898 5898 5897 5896 5896 5895 5895 5894 5894 5894 5894 5894 5894 5894 5893 5893
5891 5894 5896 5898 5900 5901 5904 5906 5909 5910 5911 5912 5913 5913 5913 5912 5912 5911 5911 5910 5910 5909 5908 5908 5907 5907 5905 5904 5904 5903 5902 5901 5900 5899 5898 5897 5896 5896 5895 5894 5894 5894 5893 5893 5893 5893 5892 5892 5892
5887 5890 5892 5894 5896 5898 5900 5903 5907 5907 5909 5910 5911 5911 5911 5911 5911 5910 5910 5910 5909 5908 5908 5907 5907 5906 5905 5904 5903 5903 5902 5901 5900 5899 5898 5897 5896 5895 5894 5893 5892 5892 5892 5892 5892 5891 5891 5890 5890
5882 5885 5888 5890 5892 5895 5897 5900 5903 5905 5907 5908 5909 5909 5909 5909 5909 5909 5908 5908 5908 5907 5907 5906 5906 5905 5904 5903 5902 5902 5901 5900 5899 5898 5897 5896 5895 5894 5893 5892 5891 5891 5890 5890 5890 5890 5889 5889 5888
5877 5880 5883 5885 5887 5890 5894 5895 5899 5902 5904 5905 5906 5907 5907 5907 5907 5907 5906 5906 5906 5906 5905 5905 5904 5903 5903 5902 5901 5901 5900 5899 5899 5898 5897 5896 5894 5893 5892 5891 5890 5890 5889 5888 5888 5888 5887 5887 5886
5872 5876 5879 5881 5884 5887 5889 5891 5896 5898 5900 5901 5903 5903 5904 5905 5905 5905 5904 5904 5904 5904 5904 5903 5902 5901 5900 5900 5899 5899 5899 5898 5897 5896 5895 5894 5893 5892 5890 5889 5889 5888 5887 5887 5886 5885 5885 5884 5883
5867 5870 5874 5877 5879 5882 5885 5888 5891 5893 5896 5898 5899 5900 5901 5902 5902 5902 5902 5902 5902 5902 5901 5901 5900 5899 5898 5897 5897 5897 5897 5896 5895 5895 5894 5893 5891 5890 5889 5888 5887 5886 5885 5885 5884 5883 5882 5882 5881
5862 5865 5869 5871 5874 5877 5880 5883 5887 5889 5892 5894 5895 5897 5898 5899 5899 5900 5900 5900 5899 5899 5899 5897 5897 5896 5895 5895 5894 5894 5894 5894 5893 5893 5892 5891 5889 5888 5887 5886 5885 5884 5883 5882 5881 5880 5879 5878 5878
5857 5860 5863 5867 5869 5872 5875 5881 5882 5885 5887 5889 5891 5893 5895 5896 5897 5897 5897 5897 5897 5896 5896 5896 5895 5894 5893 5893 5893 5892 5892 5891 5891 5890 5889 5888 5887 5886 5884 5883 5883 5882 5881 5880 5879 5878 5877 5876 5874
5851 5855 5859 5862 5865 5868 5871 5877 5878 5880 5883 5885 5887 5889 5891 5892 5893 5894 5894 5894 5893 5893 5893 5892 5892 5891 5891 5891 5890 5890 5889 5888 5888 5887 5887 5886 5885 5883 5882 5881 5880 5878 5877 5876 5876 5875 5874 5872 5871